VLG5NM LEIB-LEBL

Flight info

Callsign VLG5NM
Flight time N/A
Altitude 18000
Route EPAMA N856 MARTA
Aircraft A321/M-SDFGHILORVWXY/LB1

Departure

Time 2026-05-01 15:28
Airport Ibiza Airport (LEIB)

Arrival

Time N/A
Airport Josep Tarradellas Barcelona-El Prat Airport (LEBL)
Time Latitude Longitude Altitude Speed Heading
2026-05-01 14:43 38.87640 1.37444 47 ft 0 kts 332°
2026-05-01 15:20 38.87642 1.37443 47 ft 1 kts 332°
2026-05-01 15:20 38.87665 1.37426 48 ft 4 kts 324°
2026-05-01 15:20 38.87677 1.37385 49 ft 6 kts 265°
2026-05-01 15:21 38.87656 1.37315 49 ft 10 kts 243°
2026-05-01 15:21 38.87618 1.37223 49 ft 12 kts 242°
2026-05-01 15:21 38.87576 1.37123 48 ft 13 kts 242°
2026-05-01 15:21 38.87531 1.37015 47 ft 14 kts 242°
2026-05-01 15:22 38.87428 1.36797 45 ft 12 kts 203°
2026-05-01 15:22 38.87345 1.36827 43 ft 11 kts 152°
2026-05-01 15:22 38.87282 1.36841 41 ft 10 kts 214°
2026-05-01 15:23 38.87239 1.36751 40 ft 12 kts 243°
2026-05-01 15:23 38.87192 1.36637 38 ft 15 kts 242°
2026-05-01 15:23 38.87140 1.36511 36 ft 16 kts 242°
2026-05-01 15:23 38.87083 1.36373 34 ft 18 kts 242°
2026-05-01 15:24 38.87020 1.36223 31 ft 19 kts 241°
2026-05-01 15:24 38.86958 1.36072 28 ft 19 kts 242°
2026-05-01 15:24 38.86906 1.35946 25 ft 14 kts 242°
2026-05-01 15:24 38.86870 1.35861 24 ft 8 kts 242°
2026-05-01 15:25 38.86840 1.35822 23 ft 6 kts 191°
2026-05-01 15:25 38.86798 1.35837 23 ft 0 kts 153°
2026-05-01 15:26 38.86789 1.35843 23 ft 7 kts 153°
2026-05-01 15:26 38.86721 1.35902 23 ft 12 kts 120°
2026-05-01 15:27 38.86727 1.35967 24 ft 1 kts 61°
2026-05-01 15:27 38.86733 1.35981 24 ft 5 kts 61°
2026-05-01 15:27 38.86856 1.36277 29 ft 74 kts 62°
2026-05-01 15:28 38.87707 1.38339 365 ft 160 kts 63°
2026-05-01 15:28 38.88128 1.39650 1020 ft 159 kts 76°
2026-05-01 15:28 38.88331 1.41061 1409 ft 166 kts 81°
2026-05-01 15:29 38.88924 1.44177 1908 ft 195 kts 74°
2026-05-01 15:29 38.89291 1.45905 2216 ft 209 kts 76°
2026-05-01 15:29 38.89992 1.49671 3363 ft 217 kts 76°
2026-05-01 15:30 38.90756 1.53404 4669 ft 220 kts 66°
2026-05-01 15:31 38.95456 1.59579 6561 ft 272 kts 41°
2026-05-01 15:31 38.98302 1.62821 8037 ft 279 kts 41°
2026-05-01 15:32 39.01427 1.65350 9368 ft 288 kts 15°
2026-05-01 15:32 39.05608 1.66069 10793 ft 295 kts
2026-05-01 15:33 39.11789 1.65432 12484 ft 311 kts 337°
2026-05-01 15:34 39.18046 1.61892 13830 ft 338 kts 335°